Flag for U.S.A. Weather past 2 weeks in Petersburg, Indiana, U.S.A.

Now
37 °F

Clear.


Feels Like: 31 °F
Forecast: 36 / 46 °F
Wind: 9 mph from Southeast

Location: Huntingburg Airport

Current Time: Feb 1, 2015 at 4:22:46 AM

Latest Report: Feb 1, 2015 at 3:55 AM


Visibility: 10 mi

Pressure: 30.04 "Hg

Humidity: 52%

Dew point: 21 °F

Location of PetersburgLocation

Historic Weather in Petersburg — Graph

°F

Petersburg temperature yesterday

Maximum temperature yesterday: 41 °F (at 3:35 PM)
Minimum temperature yesterday: 21 °F (at 1:15 AM)
Average temperature yesterday: 31 °F

Past Weeks' High & Low Weather Summary

 TemperatureHumidityPressure
High55 °F (Jan 20, 2:55 PM)93% (Jan 18, 4:35 AM)30.53 "Hg (Jan 18, 4:35 AM)
Low21 °F (Jan 31, 1:15 AM)39% (Jan 28, 3:35 PM)29.61 "Hg (Jan 25, 1:35 PM)
Average36 °F70%30.08 "Hg
* Reported Jan 17 2:15 AM — Feb 1 2:55 AM, Petersburg, Weather by CustomWeather, © 2014

Note: Actual official high and low records may vary slightly from our data, if they occured in-between our weather recording intervals... More about our weather records

Advertising

Petersburg weather history for previous 24 hours

 ConditionsComfort  
Time TempWeatherWind HumidityBarometerVisibility
2:55 AM
Feb 1
37 °FClear.6 mph56%30.09 "Hg10 mi
2:35 AM37 °FClear.5 mph60%30.12 "Hg10 mi
2:15 AM37 °FClear.10 mph52%30.12 "Hg10 mi
1:55 AM37 °FClear.7 mph52%30.09 "Hg10 mi
1:35 AM37 °FClear.3 mph52%30.10 "Hg10 mi
1:15 AM37 °FPassing clouds.3 mph52%30.13 "Hg10 mi
12:55 AM37 °FClear.9 mph56%30.13 "Hg10 mi
12:35 AM37 °FPassing clouds.7 mph56%30.16 "Hg10 mi
12:15 AM37 °FClear.10 mph56%30.17 "Hg10 mi
11:55 PM
Jan 31
37 °FClear.9 mph56%30.18 "Hg10 mi
11:35 PM37 °FClear.6 mph56%30.20 "Hg10 mi
11:15 PM37 °FClear.8 mph56%30.19 "Hg10 mi
10:55 PM37 °FPassing clouds.7 mph60%30.19 "Hg10 mi
10:35 PM37 °FPassing clouds.8 mph60%30.21 "Hg10 mi
10:15 PM37 °FPassing clouds.9 mph60%30.21 "Hg10 mi
9:55 PM36 °FPassing clouds.9 mph65%30.21 "Hg10 mi
9:35 PM36 °FPassing clouds.6 mph65%30.22 "Hg10 mi
9:15 PM37 °FPassing clouds.6 mph60%30.25 "Hg10 mi
8:55 PM36 °FPassing clouds.5 mph65%30.25 "Hg10 mi
8:35 PM37 °FClear.5 mph60%30.27 "Hg10 mi
8:15 PM37 °FClear.6 mph60%30.28 "Hg10 mi
7:55 PM37 °FClear.6 mph60%30.28 "Hg10 mi
7:35 PM37 °FClear.3 mph60%30.28 "Hg10 mi
7:15 PM37 °FClear.3 mph60%30.28 "Hg10 mi
6:55 PM37 °FClear.9 mph60%30.29 "Hg10 mi
6:35 PM37 °FClear.10 mph60%30.26 "Hg10 mi
6:15 PM37 °FClear.7 mph60%30.27 "Hg10 mi
5:55 PM39 °FSunny.6 mph56%30.27 "Hg10 mi
5:35 PM39 °FSunny.6 mph56%30.28 "Hg10 mi
5:15 PM39 °FSunny.7 mph52%30.29 "Hg10 mi
4:55 PM39 °FSunny.9 mph56%30.29 "Hg10 mi
4:35 PM39 °FSunny.8 mph56%30.29 "Hg10 mi
4:15 PM41 °FSunny.8 mph53%30.30 "Hg10 mi
3:35 PM41 °FSunny.8 mph53%30.31 "Hg10 mi
3:15 PM39 °FSunny.10 mph56%30.32 "Hg10 mi
2:55 PM39 °FSunny.8 mph56%30.32 "Hg10 mi
2:35 PM39 °FSunny.5 mph52%30.32 "Hg10 mi
2:15 PM37 °FSunny.7 mph60%30.33 "Hg10 mi
1:55 PM37 °FSunny.3 mph60%30.34 "Hg10 mi
1:35 PM37 °FSunny.3 mph60%30.34 "Hg10 mi
1:15 PM37 °FSunny.7 mph60%30.36 "Hg10 mi
12:55 PM37 °FSunny.8 mph56%30.37 "Hg10 mi
12:35 PM37 °FSunny.9 mph60%30.38 "Hg10 mi
12:15 PM37 °FSunny.10 mph60%30.39 "Hg10 mi
11:55 AM36 °FSunny.9 mph65%30.40 "Hg10 mi
11:35 AM36 °FSunny.10 mph65%30.40 "Hg10 mi
11:15 AM34 °FSunny.7 mph70%30.41 "Hg10 mi
10:55 AM34 °FSunny.7 mph70%30.40 "Hg10 mi
10:35 AM30 °FSunny.6 mph75%30.40 "Hg10 mi
10:15 AM30 °FSunny.6 mph75%30.40 "Hg10 mi
9:55 AM28 °FSunny.6 mph74%30.40 "Hg10 mi
9:35 AM27 °FSunny.5 mph80%30.40 "Hg10 mi
9:15 AM25 °FSunny.3 mph80%30.40 "Hg10 mi
8:55 AM25 °FSunny.No wind80%30.40 "Hg10 mi
8:35 AM23 °FSunny.No wind80%30.39 "Hg10 mi
8:15 AM23 °FSunny.No wind80%30.39 "Hg10 mi
7:55 AM21 °FSunny.3 mph86%30.38 "Hg10 mi
7:35 AM21 °FClear.3 mph86%30.38 "Hg10 mi
7:15 AM21 °FClear.No wind86%30.38 "Hg10 mi
6:55 AM21 °FClear.3 mph86%30.37 "Hg10 mi
6:35 AM21 °FClear.3 mph86%30.37 "Hg10 mi
6:15 AM21 °FClear.3 mph80%30.37 "Hg10 mi
5:55 AM21 °FClear.3 mph86%30.37 "Hg10 mi
5:35 AM21 °FClear.3 mph80%30.38 "Hg10 mi
5:15 AM21 °FClear.3 mph80%30.38 "Hg10 mi
4:55 AM21 °FClear.3 mph80%30.39 "Hg10 mi
4:35 AM21 °FClear.No wind80%30.39 "Hg10 mi
4:15 AM21 °FClear.No wind80%30.40 "Hg10 mi
Weather by CustomWeather, © 2014

See weather overviewHow to use our weather pages